THOR ABLESTAR DEB, 3125

Orbit data source: Space-Track

THOR ABLESTAR DEB, 3125 is space debris in LEO originally from a launch on Thu, 29 Jun 1961 UTC launched from the Air Force Eastern Test Range (AFETR). Debris objects in space refer to the collection of defunct objects orbiting the Earth. Examples of debris include non-operational satellites, rocket bodies, and fragments generated from explosions, collisions, or faulty payload assembly.

Loading next visibility...
Identifier
3125, 1961-015HY
Orbit
LEO
Country
Flag of USUS
Related business
Manufacturer
Unknown
Mission
Spacecraft
Bus & Motor
Unknown
Mass
Unknown
Launch date (UTC)
1961-06-29 (65 years ago)
Launch vehicle
Unknown
Launch site
Air Force Eastern Test Range (AFETR)
Object type
Payload
Rocket body
Debris
Shape & HBR
Unknown shape, 0.1 m
Radar Cross Section
Small (<0.1 m²)

Expand to show TLE details & history
Last TLE update: 18 hours ago

TLE from 18 hours ago
0 THOR ABLESTAR DEB
1 03125U 61015HY  26129.66112936  .00000332  00000-0  67924-3 0  9997
2 03125  67.5584 335.5364 0299216  75.9347 345.8989 13.27606536142418
Epoch: 2026-05-09T15:52Z
TLE epoch observation values (Epoch: 2026-05-09T15:52:01.576Z)
Latitude
54.02949°
Longitude
-95.4668°
Altitude
945.653 km
Speed
7.491 km/s
True Right ascension
00h 40m 03s
True Declination
53° 52' 12"
Sunlit
Object was in daylight at epoch
Visualization orbit readout
Latitude
Unknown
Longitude
Unknown
Altitude
Unknown
Speed
Unknown
Apparent Right ascension
Unknown
Apparent Declination
Unknown
Sunlit
N/A
Visualization observer readout
Local Sidereal Time
18:14:19
Azimuth
Unknown
Elevation
Unknown
Doppler factor
Unknown
Orbital elements
Apogee altitude
1,379.541 km
Perigee altitude
928.784 km
Semi-major axis
7,532.299 km
Eccentricity
0.02992
Inclination
67.5584°
RAAN
335.5364°
Arg. of periapsis
75.9347°
True anomaly
345.03218°
Mean anomaly
345.8989°
Eccentric anomaly
345.46875°
Mean motion
3.3201 °/min
Orbital period
108.43 mins
BSTAR
0.00067924
Loading maneuver chart data...
Computing Atmospheric mass density...

Documentation

Showing up to 5 results
|